Yakima, WA
on Tuesday, December 25, 2012

Tuesday
Previous Day Next Day
Daily Summary
 ActualAverageRecord
Temperature
Mean Temperature °F 28°F  
Max Temperature 34°F 34°F 60°F (1972)
Min Temperature 23°F 21°F 3°F (2008)
Degree Days
Heating Degree Days 36 37  
Month to date heating degree days 758 906  
Since 1 July heating degree days 1996 2439  
Cooling Degree Days 0 0  
Month to date cooling degree days 0 0  
Year to date cooling degree days 667 472  
Moisture
Dew Point 28°F   
Average Humidity 87    
Maximum Humidity 92    
Minimum Humidity 81    
Precipitation
Precipitation 0.26 in 0.05 in 0.38 in (1996)
Month to date precipitation 2.02 1.25  
Year to date precipitation 9.21 7.97  
Snow
Snow 0.00 in 0.30 in 4.40 in (1996)
Month to date snowfall 8.1 7.6  
Year to date snowfall 30.3 19.8  
Since 1 July snowfall 8.8 11.2  
Snow Depth 0.00 in   
Wind
Wind Speed 2 mph   
Max Wind Speed 10 mph   
Max Gust Speed 9 mph   
Visibility 4 miles   
Events Fog , Rain , Snow   

Key: T is trace of precipitation, MM is missing value
Source: NWS Daily Summary
Time(PST)TemperatureDew PointHumidity Pressure Visibility Wind DirectionWind SpeedGust SpeedPrecipitationEvents Conditions
12:53 AM 24.1°F 19.9°F 84% 30.16 in 6.0 miles Calm Calm - N/A   Clear
1:53 AM 23.0°F 19.9°F 88% 30.14 in 8.0 miles West 3.5 mph - N/A   Clear
2:53 AM 25.0°F 21.0°F 85% 30.12 in 10.0 miles West 4.6 mph - N/A   Clear
3:53 AM 27.0°F 23.0°F 85% 30.10 in 10.0 miles WNW 3.5 mph - N/A   Scattered Clouds
4:53 AM 27.0°F 23.0°F 85% 30.08 in 10.0 miles Calm Calm - N/A   Overcast
5:53 AM 27.0°F 24.1°F 89% 30.05 in 10.0 miles West 3.5 mph - N/A   Overcast
6:53 AM 28.0°F 24.1°F 85% 30.04 in 8.0 miles WNW 3.5 mph - N/A   Overcast
7:18 AM 28.4°F 24.8°F 86% 29.98 in 2.0 miles Calm Calm - 0.00 in Snow Light Snow
7:21 AM 28.4°F 24.8°F 86% 29.98 in 1.8 miles Calm Calm - 0.00 in Snow Light Snow
7:53 AM 28.9°F 26.1°F 89% 30.01 in 1.5 miles Calm Calm - 0.01 in Snow Light Snow
8:31 AM 28.4°F 26.6°F 93% 29.97 in 0.8 miles Calm Calm - 0.00 in Snow Light Snow
8:53 AM 30.0°F 27.0°F 88% 30.00 in 0.5 miles West 3.5 mph - 0.02 in Fog , Snow Snow
9:07 AM 30.2°F 26.6°F 86% 29.96 in 0.2 miles West 3.5 mph - 0.02 in Fog , Snow Snow
9:16 AM 30.2°F 28.4°F 93% 29.95 in 0.5 miles Calm Calm - 0.02 in Fog , Snow Snow
9:40 AM 30.2°F 28.4°F 93% 29.94 in 0.2 miles Calm Calm - 0.05 in Fog , Snow Snow
9:53 AM 30.9°F 28.0°F 89% 29.98 in 0.5 miles Calm Calm - 0.07 in Fog , Snow Light Snow
10:49 AM 32.0°F 28.4°F 87% 29.92 in 0.5 miles West 4.6 mph - 0.03 in Snow Light Snow
10:53 AM 32.0°F 28.9°F 88% 29.95 in 0.5 miles West 4.6 mph - 0.03 in Snow Light Snow
11:12 AM 32.0°F 28.4°F 87% 29.90 in 0.5 miles West 4.6 mph - 0.01 in Snow Light Snow
11:22 AM 32.0°F 30.2°F 93% 29.90 in 0.5 miles West 4.6 mph - 0.01 in Snow Light Snow
11:53 AM 32.0°F 30.0°F 92% 29.92 in 1.0 miles Calm Calm - 0.02 in Snow Light Snow
12:04 PM 33.8°F 30.2°F 87% 29.87 in 1.0 miles Calm Calm - 0.01 in Snow Light Snow
12:26 PM 33.8°F 30.2°F 87% 29.86 in 0.8 miles Calm Calm - 0.01 in Snow Light Snow
12:46 PM 33.8°F 30.2°F 87% 29.86 in 0.5 miles Calm Calm - 0.02 in Fog , Snow Snow
12:53 PM 33.1°F 30.9°F 92% 29.89 in 0.5 miles Calm Calm - 0.03 in Fog , Snow Snow
1:53 PM 34.0°F 30.0°F 85% 29.88 in 0.8 miles Calm Calm - 0.03 in Snow Light Snow
1:59 PM 33.8°F 30.2°F 87% 29.84 in 1.0 miles Calm Calm - 0.01 in Snow Light Snow
2:35 PM 33.8°F 30.2°F 87% 29.84 in 1.0 miles Calm Calm - 0.01 in Snow Light Snow
2:53 PM 33.1°F 30.0°F 89% 29.88 in 1.0 miles Calm Calm - 0.02 in Snow Light Snow
2:56 PM 33.8°F 30.2°F 87% 29.84 in 0.8 miles Calm Calm - 0.00 in Snow Light Snow
3:16 PM 33.8°F 30.2°F 87% 29.83 in 0.8 miles Calm Calm - N/A Snow Light Snow
3:25 PM 33.8°F 30.2°F 87% 29.83 in 0.8 miles Calm Calm - 0.01 in Snow Light Snow
3:40 PM 33.8°F 30.2°F 87% 29.83 in 0.5 miles Calm Calm - 0.01 in Fog , Snow Light Snow
3:53 PM 33.1°F 30.0°F 89% 29.88 in 0.5 miles Calm Calm - 0.02 in Fog , Snow Light Snow
4:04 PM 33.8°F 30.2°F 87% 29.83 in 1.0 miles Calm Calm - 0.00 in Snow Light Snow
4:32 PM 33.8°F 30.2°F 87% 29.83 in 3.0 miles Calm Calm - 0.00 in Rain Light Rain
4:53 PM 33.1°F 30.9°F 92% 29.87 in 5.0 miles Calm Calm - 0.00 in   Overcast
5:53 PM 33.1°F 30.9°F 92% 29.86 in 3.0 miles Calm Calm - 0.00 in Snow Light Snow
6:24 PM 33.8°F 30.2°F 87% 29.83 in 2.5 miles Calm Calm - 0.01 in Snow Light Snow
6:53 PM 32.0°F 30.0°F 92% 29.87 in 4.0 miles West 3.5 mph - 0.01 in   Overcast
7:53 PM 33.1°F 28.9°F 85% 29.86 in 10.0 miles WSW 4.6 mph - 0.00 in   Overcast
8:21 PM 33.8°F 28.4°F 81% 29.81 in 10.0 miles West 5.8 mph - N/A   Mostly Cloudy
8:53 PM 32.0°F 28.9°F 88% 29.86 in 10.0 miles WSW 6.9 mph - N/A   Overcast
9:53 PM 30.9°F 28.0°F 89% 29.85 in 10.0 miles WSW 4.6 mph - N/A   Overcast
10:18 PM 33.8°F 28.4°F 81% 29.81 in 10.0 miles West 5.8 mph - N/A   Overcast
10:53 PM 32.0°F 28.0°F 85% 29.85 in 10.0 miles West 5.8 mph - N/A   Overcast
11:53 PM 32.0°F 28.9°F 88% 29.85 in 4.0 miles West 4.6 mph - 0.00 in Snow Light Snow
Moon Phase
Dec. 25 Dec. 28 Jan. 04 Jan. 11 Jan. 18
Sunrise:07:45 AM (PST) Moon Rise:02:34 PM (PST)12/25
Sunset:04:20 PM (PST) Moon Set:05:19 AM (PST)12/25

Copyright © 2014 The Weather Underground, Inc.